Regional Weather Roundup
Issued by NWS Newport/Morehead, NC

Current Version | Previous Version | Text Only | Print | Product List | Glossary On
Versions: 1 2 3 4 5 6 7 8 9 10 11 12 13 14 15 16 17 18 19 20 21 22 23 24 25 26 27 28 29 30 31 32 33 34 35 36 37 38 39 40 41 42 43 44 45 46 47 48 49 50
000
ASUS42 KMHX 250722
RWRMHX
WEATHER ROUNDUP FOR EASTERN NORTH CAROLINA
NATIONAL WEATHER SERVICE NEWPORT/MOREHEAD CITY NC
200 AM EST THU DEC 25 2014

NOTE: "FAIR" INDICATES FEW OR NO CLOUDS BELOW 12,000 FEET
WITH NO SIGNIFICANT WEATHER AND/OR OBSTRUCTIONS TO VISIBILITY

NCZ015>017-031-032-045>047-102-103-250800-
NORTH COAST

CITY           SKY/WX    TMP DP  RH WIND       PRES   REMARKS
EDENTON        CLOUDY    65  63  94 SW8       29.72R
ELIZABETH CITY LGT RAIN  70  65  84 SW16      29.70R
KITTY HAWK     RAIN      67  67 100 SW9G20    29.70R
MANTEO         CLOUDY    64  64 100 SW26G32   29.71R

$$

NCZ045>047-081-094-103-104-250800-
CENTRAL COAST

CITY           SKY/WX    TMP DP  RH WIND       PRES   REMARKS
FRISCO         CLOUDY    66  66 100 SW16G25   29.75R FOG
SWANQUARTER      N/A     61 N/A N/A SW14      29.71S

$$

NCZ095-097-098-100-101-250800-
SOUTHERN COAST

CITY           SKY/WX    TMP DP  RH WIND       PRES   REMARKS
BEAUFORT       CLOUDY    64  63  96 SW14G24   29.76R
CEDAR ISLAND     N/A     66 N/A N/A S9G20     29.79R
JACKSONVILLE   CLOUDY    65  63  93 SW10      29.75S
PINEY ISLAND   CLOUDY    69  66  90 SW10      29.74F
WILMINGTON     CLOUDY    65  63  93 SW9       29.77S


$$

NCZ011>013-027>030-043-044-078>080-089-090>093-098-250800-
COASTAL PLAIN

CITY           SKY/WX    TMP DP  RH WIND       PRES   REMARKS
AHOSKIE        CLOUDY    64  61  91 S5        29.70S
CLINTON        CLOUDY    65  64  97 SW6       29.75R
ELIZABETHTOWN  CLOUDY    66  64  93 SW8       29.75S
GOLDSBORO      CLOUDY    66  66 100 SW8       29.73R
GREENVILLE     CLOUDY    66  63  88 SW10      29.75S
HAVELOCK       CLOUDY    66  63  90 SW9       29.75F
KENANSVILLE    CLOUDY    64  63  94 SW3       29.77R
KINSTON        CLOUDY    66  64  91 S9        29.73F
NEW BERN       CLOUDY    68  63  84 SW8       29.75S
RICHLANDS      CLOUDY    64  61  88 SW9       29.77R
ROCKY MOUNT    CLOUDY    65  62  90 S10       29.71R
WASHINGTON     CLOUDY    66  63  88 SW9       29.72F
WHITEVILLE     CLOUDY    65  63  90 S9        29.77R

$$

AMZ130-135-150-152-154-156-158-170-250-252-270-ANZ085-086-088-633-658-670-250800-
MARINE OBSERVATIONS

STATION/POSITION TIME  TEMP    WIND        PRES    WAVE   SWELL
                       AIR SEA DIR/SP/G            HT/PER HT/PER
                 (UTC) (F)     (DEG/KT/KT) (MB)    (FT/S) (FT/S)
CHESAPEAKE LIGHT 0700   62     220/ 26/ 28 1004.8
64 E VA BEACH    0700   60 53  190/ 17/ 19 1005.3    7/ 8   5/ 8
DUCK             0700   67 50  200/ 17/ 24 1004.8
2 E DUCK         0700      50                N/A     3/ 8   2/11
10 NE DUCK       0700      50                N/A     4/ 8
OREGON INLET     0700   61 53  190/ 19/ 21 1006.1
13E OREGON INLT  0700      51                N/A     6/ 7   2/11
HATTERAS CG      0700   67 56  200/  7/ 14 1007.4
DIAMOND BUOY     0700   75                 1006.5    9/ 7
17 S OCRACOKE    NOT AVBL
CAPE LOOKOUT     0700   65     230/ 12/ 17 1007.7
BEAUFORT LAB     0700   63 55  220/  6/ 11 1006.6
30 SE NEW RIVER  0700   64 60  240/ 14/ 17 1008.3    7/ 8   5/ 8
5 SE WRIGHTSVLE  NOT AVBL
225 S CAPE HAT   0623   75 72  200/ 19/ 23 1013.2    7/ 6   2/12
41 SE CHARLESTON 0700   69 72  240/ 19/ 23 1008.3    7/ 7   3/ 8

$$


USA.gov is the U.S. government's official web portal to all federal, state and local government web resources and services.